Zurück zum Katalog

STARLINK-33871

AktivKommunikationVLEO
NORAD 63994·PAYLOAD·🇺🇸 United States

Gestartet May 14, 2025 von Cape Canaveral Space Force Station

Loading…

Nächste Überflüge (nächste 24 Stunden)

TLE

AktuellSource: CelesTrak SupGP

Epoche: Sep 14, 2026, 21:08 UTC

1 63994C 25101A   26257.88104167  .00031494  00000+0  11407-2 0  2579
2 63994  43.0014   9.8326 0001460 271.2999 169.0682 15.27562407    15

Verfolge STARLINK-33871 in Echtzeit mit AllMySat

Download on the App Store